COSMOS 1275 DEB

Satellite information

Favourite Embed

Satellite Type and Status

DEBRISIN ORBIT

Key statistics

Satellite COSMOS 1275 DEB at a glance.

Uptime

16214

Days in orbit

Revolutions

≈ 14.0

Per day

Orbit

LEO

Low Earth Orbit

Inclination

82.8

Latest

Satellite identification and parameters

Extended collection of information and parameters for COSMOS 1275 DEB.

Object identification

Identified? True

Debris? True

Object name: COSMOS 1275 DEB

International designator: 1981-053FT

Object number (NORAD): 13471

Object ID (CCSDS): 13471

Country: COMMONWEALTH OF INDEPENDENT STATES (CIS)

Current information (Y/N): Y

RCS size: SMALL

Orbital parameters

Period: 102.706 minutes

Inclination: 82.8098 deg

SMA: 7264.816 km

Apoapsis: 922.877 km

Periapsis: 850.486 km

RAAN: 13.7602 deg

Eccentricy: 0.0049823

Argument of periapsis: 277.2579 deg

Mean anomaly: 144.8829 deg

Mean motion: 14.02057385 rev/day

Mean motion (dot): 0.000026 rev/day2

B* drag term: 0.0016762 1/REarth

Two-line elements (TLE)

Creation date: Oct. 24, 2025, 9:06 p.m.

Reference frame: TEME

Reference center: EARTH

Epoch: Oct. 24, 2025, 5:59 a.m. UTC

TLE line 0: 0 COSMOS 1275 DEB

TLE line 1: 1 13471U 81053FT 25297.24988969 .00002600 00000-0 16762-2 0 9995

TLE line 2: 2 13471 82.8098 13.7602 0049823 277.2579 144.8829 14.02057385194462

Live tracking on map

Real-time ground track for satellite COSMOS 1275 DEB.

In-orbit conjunctions

A list of the most updated potential collisions computed for object COSMOS 1275 DEB.

Target Orbit TCA Probability of collision Miss distance Type
COSMOS 1275 DEB LEO 2024-08-16 14:26:22 0.0007004489 87.0 (m) DEBRIS

Associated space launch

Navigation satellite providing location information for the Tsiklon-B navigation system

COSMOS 1275 DEB was lifted into orbit during the mission ‘Kosmos-3M | Parus 27’, on board a Kosmos-3M space rocket.

The launch took place on June 4, 1981, 3:41 p.m. from 132/2.

For more information about the launch, click the button.

Launch to space Kosmos-3M | Parus 27
Kosmos-3M | Parus 27

Agency: N/A

Status: Launch Successful

Launch date: June 4, 1981, 3:41 p.m. UTC

Rocket: Kosmos-3M

Launch pad: 132/2

Location: Plesetsk Cosmodrome, Russian Federation

...

Latest news about this satellite

There are no fresh news available about this satellite. Check back as we update our databases every day.


Newsletter sign-up

Weekly statistics, charts and insights to help you stay on top of the space industry.